TimeAKDT,TemperatureF,Dew PointF,Humidity,Sea Level PressureIn,VisibilityMPH,Wind Direction,Wind SpeedMPH,Gust SpeedMPH,PrecipitationIn,Events,Conditions,WindDirDegrees,DateUTC
12:24 AM,33.8,32.0,93,30.34,9.0,SSE,6.9,-,0.01,,Overcast,160,2013-03-10 09:24:00
12:45 AM,33.8,32.0,93,30.35,1.8,Calm,Calm,-,0.01,Snow,Light Snow,0,2013-03-10 09:45:00
12:53 AM,33.1,32.0,96,30.35,1.2,Calm,Calm,-,0.01,Snow,Light Snow,0,2013-03-10 09:53:00
12:59 AM,33.8,30.2,87,30.34,2.0,Calm,Calm,-,0.00,Snow,Light Snow,0,2013-03-10 09:59:00
1:06 AM,33.8,32.0,93,30.34,7.0,Calm,Calm,-,0.00,Snow,Light Snow,0,2013-03-10 10:06:00
1:08 AM,33.8,32.0,93,30.35,8.0,Calm,Calm,-,0.00,,Mostly Cloudy,0,2013-03-10 10:08:00
1:30 AM,33.8,30.2,87,30.35,10.0,Variable,3.5,-,0.00,,Scattered Clouds,0,2013-03-10 10:30:00
1:53 AM,35.1,30.9,85,30.35,10.0,South,4.6,-,0.00,,Partly Cloudy,180,2013-03-10 10:53:00
3:11 AM,35.6,30.2,81,30.35,5.0,Variable,5.8,19.6,0.00,Snow,Light Snow,0,2013-03-10 11:11:00
3:23 AM,35.6,30.2,81,30.35,9.0,Variable,4.6,-,0.01,,Mostly Cloudy,0,2013-03-10 11:23:00
4:07 AM,35.6,32.0,87,30.35,6.0,South,6.9,-,0.00,Snow,Light Snow,180,2013-03-10 12:07:00
4:30 AM,33.8,32.0,93,30.36,10.0,Calm,Calm,-,0.01,,Overcast,0,2013-03-10 12:30:00
4:41 AM,33.8,32.0,93,30.36,10.0,Calm,Calm,-,0.01,,Overcast,0,2013-03-10 12:41:00
4:53 AM,34.0,32.0,92,30.36,9.0,Calm,Calm,-,0.01,,Overcast,0,2013-03-10 12:53:00
5:14 AM,33.8,30.2,87,30.36,10.0,Calm,Calm,-,0.01,,Scattered Clouds,0,2013-03-10 13:14:00
5:53 AM,32.0,30.9,96,30.36,10.0,Calm,Calm,-,0.01,,Mostly Cloudy,0,2013-03-10 13:53:00
6:32 AM,33.8,32.0,93,30.37,8.0,Variable,5.8,-,0.00,Snow,Light Snow,0,2013-03-10 14:32:00
6:49 AM,33.8,32.0,93,30.37,9.0,South,4.6,-,0.00,,Overcast,190,2013-03-10 14:49:00
6:53 AM,34.0,32.0,92,30.38,5.0,Variable,4.6,-,0.00,Snow,Light Snow,0,2013-03-10 14:53:00
6:58 AM,33.8,32.0,93,30.37,2.5,South,3.5,-,0.00,Snow,Light Snow,180,2013-03-10 14:58:00
7:09 AM,33.8,32.0,93,30.37,3.0,Variable,4.6,-,0.00,Snow,Light Snow,0,2013-03-10 15:09:00
7:53 AM,34.0,32.0,92,30.38,10.0,Variable,3.5,-,0.00,,Overcast,0,2013-03-10 15:53:00
8:17 AM,33.8,30.2,87,30.37,10.0,Variable,3.5,-,0.00,,Overcast,0,2013-03-10 16:17:00
8:53 AM,35.1,32.0,89,30.37,10.0,SSE,5.8,-,0.01,,Mostly Cloudy,160,2013-03-10 16:53:00
9:02 AM,35.6,32.0,87,30.37,10.0,Variable,3.5,-,0.01,,Mostly Cloudy,0,2013-03-10 17:02:00
9:40 AM,35.6,32.0,87,30.38,10.0,SSE,4.6,-,0.04,,Overcast,160,2013-03-10 17:40:00
9:50 AM,35.6,32.0,87,30.38,10.0,SSW,3.5,-,0.04,,Overcast,200,2013-03-10 17:50:00
9:53 AM,35.1,32.0,89,30.38,10.0,South,4.6,-,0.05,,Overcast,180,2013-03-10 17:53:00
10:10 AM,35.6,32.0,87,30.37,10.0,South,5.8,-,N/A,,Overcast,180,2013-03-10 18:10:00
10:48 AM,35.6,33.8,93,30.37,9.0,Variable,3.5,-,0.02,,Mostly Cloudy,0,2013-03-10 18:48:00
10:53 AM,36.0,33.1,89,30.38,10.0,South,5.8,-,0.02,,Mostly Cloudy,190,2013-03-10 18:53:00
11:09 AM,35.6,33.8,93,30.38,10.0,SSW,5.8,-,0.00,Rain,Light Rain,200,2013-03-10 19:09:00
11:45 AM,37.4,35.6,93,30.38,10.0,South,5.8,-,0.01,Rain,Light Rain,170,2013-03-10 19:45:00
11:53 AM,37.9,34.0,86,30.38,10.0,South,5.8,-,0.01,,Scattered Clouds,180,2013-03-10 19:53:00
12:16 PM,37.4,35.6,93,30.38,10.0,SSW,4.6,-,N/A,,Mostly Cloudy,200,2013-03-10 20:16:00
12:53 PM,39.0,34.0,82,30.38,10.0,Variable,4.6,-,N/A,,Mostly Cloudy,0,2013-03-10 20:53:00
1:53 PM,39.0,34.0,82,30.37,10.0,Variable,4.6,-,N/A,,Overcast,0,2013-03-10 21:53:00
2:53 PM,37.0,34.0,89,30.37,10.0,SSW,5.8,-,0.00,Rain,Light Rain,200,2013-03-10 22:53:00
3:33 PM,37.4,35.6,93,30.37,9.0,Variable,4.6,-,0.01,Rain,Light Rain,0,2013-03-10 23:33:00
3:53 PM,37.9,34.0,86,30.38,10.0,SSW,5.8,-,0.02,Rain,Light Rain,200,2013-03-10 23:53:00
4:38 PM,37.4,35.6,93,30.37,10.0,South,4.6,-,0.01,,Overcast,190,2013-03-11 00:38:00
4:51 PM,37.4,35.6,93,30.37,10.0,Variable,3.5,-,0.01,,Overcast,0,2013-03-11 00:51:00
4:53 PM,37.9,35.1,89,30.37,10.0,Variable,4.6,-,0.01,,Overcast,0,2013-03-11 00:53:00
5:14 PM,37.4,33.8,87,30.36,5.0,SSE,4.6,-,0.01,Rain,Light Rain,160,2013-03-11 01:14:00
5:28 PM,37.4,33.8,87,30.36,5.0,SSW,4.6,-,0.02,Rain,Light Rain,210,2013-03-11 01:28:00
5:45 PM,35.6,33.8,93,30.36,10.0,South,6.9,-,0.03,Rain,Light Rain,190,2013-03-11 01:45:00
5:53 PM,36.0,34.0,93,30.37,10.0,SSW,4.6,-,0.03,Rain,Light Rain,200,2013-03-11 01:53:00
6:53 PM,35.1,33.1,92,30.37,10.0,South,3.5,-,0.02,Rain,Light Rain,190,2013-03-11 02:53:00
7:10 PM,35.6,33.8,93,30.37,7.0,SSW,3.5,-,0.02,Rain,Light Rain,210,2013-03-11 03:10:00
7:30 PM,35.6,33.8,93,30.37,10.0,SSW,4.6,-,0.02,Rain,Light Rain,210,2013-03-11 03:30:00
7:53 PM,35.1,34.0,96,30.37,10.0,Variable,3.5,-,0.03,Rain,Light Rain,0,2013-03-11 03:53:00
8:18 PM,35.6,33.8,93,30.36,10.0,SSE,4.6,-,0.00,,Overcast,160,2013-03-11 04:18:00
8:33 PM,35.6,33.8,93,30.36,10.0,Calm,Calm,-,0.00,,Overcast,0,2013-03-11 04:33:00
8:53 PM,35.1,33.1,92,30.37,10.0,Calm,Calm,-,0.00,,Overcast,0,2013-03-11 04:53:00
9:53 PM,35.1,33.1,92,30.37,10.0,SE,5.8,-,N/A,,Overcast,140,2013-03-11 05:53:00
10:53 PM,35.1,33.1,92,30.38,10.0,Calm,Calm,-,N/A,,Overcast,0,2013-03-11 06:53:00
11:04 PM,33.8,33.8,100,30.38,10.0,Calm,Calm,-,N/A,,Overcast,0,2013-03-11 07:04:00
11:53 PM,35.1,32.0,89,30.38,6.0,Calm,Calm,-,0.02,Snow,Light Snow,0,2013-03-11 07:53:00
12:25 AM,33.8,33.8,100,30.37,10.0,NE,4.6,-,0.00,,Overcast,40,2013-03-11 08:25:00
12:53 AM,35.1,33.1,92,30.38,10.0,Calm,Calm,-,0.00,,Overcast,0,2013-03-11 08:53:00